Lamadelaine, Luxembourg
Current Conditions -  °F | °C
As of 7:20 PM on Wednesday 26 Nov 2014 (Local Time) from ELLX Reporting Station
Haze Haze  
Wind Chill: 38°   Ceiling: 100
Heat Index: 41°   Visibility: 0.62mi
Dew Point: 41°   Wind: 5mph
Humidity: 100%   Direction: 100°E
Pressure: 29.88"   Gusts: NA
Location:  49.55°N, 5.86°E
Report Text: ELLX 261820Z 10004KT 1000 R24/P1500N BR OVC001 05/05 Q1012 BECMG 0800 FG
Loading
Personal Weather Stations






























Interactive Weather Map New forecast layout! Learn more

10-Day Weather Forecast

Advertisements
Track Severe Weather on mobile